User: anonymous
Location: Darlington Observatory
(36.4817°N, 105.8156°W)
Time: 17:30:04
(UTC-06:00)
Language:

MOS 1 - Orbit

View from above orbital plane
View from above orbital plane
View from above satellite
View from above satellite

Ground track
Ground track

The orbit data is extracted from the following two-line orbital elements,

1 17527U 87018A   14243.94203429 -.00000158  00000-0 -72809-4 0  6097
2 17527 099.2222 226.0343 0007879 210.7062 202.4871 14.02297721406457
Epoch (UTC): 31 August 2014 22:36:31
Eccentricity: 0.0007879
inclination: 99.2222°
perigee height: 880 km
apogee height: 891 km
right ascension of ascending node: 226.0343°
argument of perigee: 210.7062°
revolutions per day: 14.02297721
mean anomaly at epoch: 202.4871°
orbit number at epoch: 40645

The dashed part of the orbit path shows where the satellite is in the earth's shadow,  

DLR